TimeEST,TemperatureF,Dew PointF,Humidity,Sea Level PressureIn,VisibilityMPH,Wind Direction,Wind SpeedMPH,Gust SpeedMPH,PrecipitationIn,Events,Conditions,WindDirDegrees,DateUTC
12:55 AM,33.8,26.6,75,30.23,10.0,East,8.1,-,N/A,,Overcast,90,2012-12-16 05:55:00
1:55 AM,33.8,26.6,75,30.23,10.0,East,5.8,-,N/A,,Overcast,80,2012-12-16 06:55:00
2:15 AM,33.8,26.6,75,30.24,10.0,ENE,6.9,-,N/A,,Overcast,70,2012-12-16 07:15:00
2:35 AM,33.8,24.8,70,30.24,10.0,East,5.8,-,N/A,,Overcast,80,2012-12-16 07:35:00
3:15 AM,33.8,24.8,70,30.22,10.0,ENE,5.8,-,N/A,,Overcast,70,2012-12-16 08:15:00
4:55 AM,33.8,26.6,75,30.19,10.0,ENE,6.9,-,N/A,,Overcast,70,2012-12-16 09:55:00
5:15 AM,33.8,26.6,75,30.19,10.0,East,10.4,-,N/A,,Overcast,80,2012-12-16 10:15:00
5:35 AM,33.8,24.8,70,30.19,10.0,East,8.1,16.1,N/A,,Overcast,80,2012-12-16 10:35:00
5:45 AM,33.8,24.8,70,30.19,10.0,East,11.5,-,N/A,,Overcast,80,2012-12-16 10:45:00
6:55 AM,33.8,24.8,70,30.18,10.0,East,11.5,-,N/A,,Overcast,80,2012-12-16 11:55:00
8:45 AM,33.8,24.8,70,30.18,10.0,East,9.2,-,N/A,,Overcast,90,2012-12-16 13:45:00
9:18 AM,33.8,24.8,70,30.17,3.0,East,9.2,17.3,N/A,Snow,Light Snow,90,2012-12-16 14:18:00
9:45 AM,33.8,24.8,70,30.17,2.0,East,8.1,17.3,N/A,Snow,Light Snow,90,2012-12-16 14:45:00
10:45 AM,33.8,26.6,75,30.17,2.0,East,8.1,17.3,N/A,,Overcast,90,2012-12-16 15:45:00
11:45 AM,33.8,26.6,75,30.13,2.0,East,8.1,-,N/A,,Overcast,90,2012-12-16 16:45:00
12:12 PM,33.8,28.4,81,30.12,2.0,East,10.4,16.1,N/A,,Light Drizzle,80,2012-12-16 17:12:00
12:45 PM,33.8,28.4,81,30.11,2.0,East,6.9,16.1,N/A,,Light Drizzle,80,2012-12-16 17:45:00
1:45 PM,33.8,28.4,81,30.09,2.0,East,9.2,-,N/A,,Light Drizzle,80,2012-12-16 18:45:00
2:30 PM,33.8,28.4,81,30.07,1.0,East,9.2,-,N/A,,Light Drizzle,90,2012-12-16 19:30:00
2:45 PM,33.8,28.4,81,30.07,1.0,East,8.1,-,N/A,,Light Drizzle,80,2012-12-16 19:45:00
3:45 PM,33.8,30.2,87,30.06,1.0,East,8.1,-,N/A,,Light Drizzle,90,2012-12-16 20:45:00
4:45 PM,35.6,30.2,81,30.04,2.0,East,8.1,-,N/A,,Light Drizzle,90,2012-12-16 21:45:00
5:45 PM,33.8,28.4,81,30.03,3.0,ENE,9.2,-,N/A,Rain,Light Rain,70,2012-12-16 22:45:00
6:45 PM,33.8,28.4,81,30.02,3.0,East,9.2,19.6,N/A,Rain,Light Rain,80,2012-12-16 23:45:00
7:45 PM,33.8,28.4,81,30.00,3.0,East,10.4,17.3,N/A,Rain,Light Rain,80,2012-12-17 00:45:00
8:45 PM,33.8,30.2,87,29.99,3.0,East,6.9,17.3,N/A,Rain,Light Rain,80,2012-12-17 01:45:00
9:15 PM,33.8,28.4,81,29.99,3.0,East,9.2,18.4,N/A,,Overcast,80,2012-12-17 02:15:00
9:35 PM,33.8,28.4,81,29.98,4.0,East,9.2,-,N/A,,Overcast,80,2012-12-17 02:35:00
9:55 PM,33.8,28.4,81,29.98,4.0,ENE,9.2,16.1,N/A,,Overcast,70,2012-12-17 02:55:00
10:15 PM,33.8,28.4,81,29.98,3.0,ENE,13.8,17.3,N/A,,Overcast,60,2012-12-17 03:15:00
10:35 PM,33.8,28.4,81,29.97,3.0,ENE,9.2,18.4,N/A,,Overcast,60,2012-12-17 03:35:00
10:55 PM,33.8,28.4,81,29.97,3.0,ENE,10.4,17.3,N/A,,Overcast,60,2012-12-17 03:55:00
11:15 PM,33.8,28.4,81,29.98,3.0,ENE,10.4,16.1,N/A,,Overcast,60,2012-12-17 04:15:00
11:35 PM,33.8,28.4,81,29.97,3.0,ENE,11.5,18.4,N/A,,Overcast,60,2012-12-17 04:35:00
11:55 PM,33.8,28.4,81,29.97,3.0,ENE,11.5,18.4,N/A,,Overcast,60,2012-12-17 04:55:00